Location: Austin
(30.3000°N, 97.7500°W)
Time: 12:59:59
(UTC-05:00)

Cosmos 372 Rocket - Pass Details

Date: 08 April 2026
Orbit: 732 x 763 km, 74.1° (Epoch: 11 April)

Event Time Altitude Azimuth Distance (km) Brightness Sun altitude
Rises 21:10:29 0° 200° (SSW) 3,191 7.2 -16.7°
Reaches altitude 10° 21:12:50 10° 202° (SSW) 2,274 6.5 -17.2°
Maximum altitude 21:17:59 71° 287° (WNW) 804 4.2 -18.3°
Drops below altitude 10° 21:23:11 10° 11° (N) 2,298 6.6 -19.3°
Sets 21:25:35 0° 14° (NNE) 3,227 7.3 -19.8°
